Location: Newark
(25.3833°N, 97.4000°E)
Time: 04:03:59
(UTC+00:00)

Starlink Launch 2 trailer - Visible Passes

Search period start: 11 December 2019 00:00
Search period end: 21 December 2019 00:00
Orbit: 279 x 281 km, 53.0° (Epoch: 13 November)

Date Brightness Start Highest point End Pass type
(mag) Time Alt. Az. Time Alt. Az. Time Alt. Az.
11 Dec 2.9 23:30:08 10° NNW 23:32:32 50° NE 23:34:54 10° SE visible
12 Dec 2.7 23:32:12 11° NW 23:34:25 44° SW 23:36:45 10° SSE visible
13 Dec 4.3 23:34:40 10° W 23:36:14 15° SW 23:37:49 10° SSW visible
17 Dec 6.0 12:38:07 10° WSW 12:38:22 12° WSW 12:38:22 12° WSW visible
18 Dec 4.4 11:07:19 10° SSE 11:08:48 14° SE 11:10:17 10° E visible
19 Dec 2.9 11:08:18 10° SSW 11:10:37 40° SE 11:12:57 10° NE visible
20 Dec 2.8 11:10:06 10° SW 11:12:30 55° NW 11:14:55 10° NNE visible
